[[{"header":{"parameterUnit":"m.s-1","parameterCategory":1,"la1":30.2991,"la2":30.254,"lo1":-89.0895,"lo2":-89.0444,"dy":0.0017,"dx":0.0017,"nx":28,"ny":28,"refTime":"2025-05-22T03:00:00:Z","depth":0,"parameterNumber":2,"parameterNumberName":"U-component_of_WINDS"},"data":[0,0,0,0,0,0,0,0,0,0,0,0,0,0,0,0,0,0,0,0,0,0,0,0,0,0,0,0,0,0,0,0,0,0,0,0,0,0,0,0,0,0,0,0,0,0,0,0,0,0,0,0,0,0,0,0,0,0,-1.0339,-1.034,0,-1.0388,-1.0389,-1.0389,-1.035,-1.0348,-1.0347,-1.0345,-1.0398,-1.0401,-1.0404,0,0,0,0,0,0,0,0,0,0,0,0,0,-1.0215,-1.0218,-1.0339,-1.034,-1.0341,-1.0388,-1.0389,-1.0389,-1.035,-1.0348,-1.0346,-1.0344,-1.0397,-1.0401,-1.0404,0,0,0,0,0,0,0,0,0,0,0,0,0,-1.0267,-1.0219,-1.0339,-1.0327,-1.0326,-1.0388,-1.0389,-1.0389,-1.0351,-1.0348,-1.0346,-1.0343,-1.0396,-1.04,-1.0405,-1.0483,0,0,-1.0418,-1.042,0,0,0,0,0,0,0,0,-1.0264,-1.0272,-1.0328,-1.0328,-1.0327,-1.036,-1.0364,-1.0421,-1.0351,-1.0341,-1.0345,-1.0342,-1.0388,-1.0393,-1.0408,-1.0485,-1.0487,-1.0419,-1.0422,-1.0423,-1.0425,0,0,0,0,0,0,0,-1.0261,-1.027,-1.0359,-1.0329,-1.0328,-1.032,-1.0324,-1.0375,-1.0378,-1.0342,-1.0339,-1.0346,-1.0387,-1.0403,-1.0409,-1.0488,-1.0419,-1.0423,-1.0425,-1.0427,-1.0632,-1.0635,0,0,0,0,0,0,-1.0258,-1.0267,-1.0357,-1.036,-1.0289,-1.0324,-1.0329,-1.0352,-1.0378,-1.0379,-1.0348,-1.0343,-1.0397,-1.0403,-1.041,-1.0504,-1.0423,-1.0428,-1.043,-1.063,-1.0633,-1.0636,0,0,0,0,0,0,-1.0255,-1.0266,-1.0355,-1.0313,-1.0323,-1.0329,-1.0355,-1.0355,-1.0371,-1.0382,-1.0382,-1.0363,-1.0395,-1.0404,-1.0465,-1.0505,-1.043,-1.0434,-1.0626,-1.0631,-1.0635,-1.0691,0,0,0,0,0,0,-1.0252,-1.0266,-1.0295,-1.0314,-1.0326,-1.0408,-1.0357,-1.0357,-1.0378,-1.0373,-1.0397,-1.0398,-1.0394,-1.0458,-1.0469,-1.051,-1.0437,-1.0623,-1.0628,-1.0633,-1.0686,-1.0697,-1.0706,0,0,0,0,0,-1.0248,-1.0309,-1.0296,-1.0308,-1.0362,-1.0411,-1.0418,-1.0411,-1.0381,-1.0411,-1.0418,-1.0397,-1.0498,-1.0465,-1.0477,-1.052,-1.062,-1.0627,-1.0633,-1.0681,-1.0695,-1.0706,0,0,0,0,0,0,-1.0297,-1.0312,-1.0298,-1.0367,-1.0388,-1.0404,-1.0441,-1.0425,-1.0455,-1.045,-1.044,-1.0446,-1.051,-1.0521,-1.0483,-1.0596,-1.0555,-1.0564,-1.0588,-1.06,-1.061,-1.0608,-1.0441,0,0,0,0,0,-1.0315,-1.0352,-1.0364,-1.0424,-1.0435,-1.0436,-1.0457,-1.045,-1.0472,-1.0481,-1.0492,-1.0515,-1.0551,-1.0576,-1.0611,-1.0686,-1.0692,-1.0721,-1.0732,-1.074,-1.0749,-1.079,-1.0804,-1.0657,-1.0656,-1.0656,0,0,-1.0355,-1.0367,-1.0392,-1.0434,-1.0449,-1.0489,-1.0444,-1.0488,-1.0518,-1.0488,-1.0546,-1.0555,-1.058,-1.0648,-1.0679,-1.0659,-1.079,-1.0748,-1.0754,-1.0759,-1.0798,-1.0812,-1.0825,-1.0661,-1.066,-1.0659,0,0,-1.0447,-1.046,-1.0512,-1.0527,-1.0551,-1.0551,-1.0563,-1.0582,-1.0587,-1.0644,-1.0622,-1.0658,-1.0721,-1.074,-1.0758,-1.0856,-1.0839,-1.0868,-1.0922,-1.0963,-1.0975,-1.0985,-1.1022,-1.1035,-1.0876,-1.0876,-1.0876,0,-1.0494,-1.0552,-1.0541,-1.0586,-1.0606,-1.0578,-1.0632,-1.0648,-1.0682,-1.0696,-1.0672,-1.0752,-1.0766,-1.0839,-1.0863,-1.0878,-1.0893,-1.0866,-1.0973,-1.0984,-1.0993,-1.1028,-1.1042,-1.0879,-1.0879,-1.0879,-1.0878,0,-1.0609,-1.0649,-1.0689,-1.0721,-1.0745,-1.0794,-1.0791,-1.0817,-1.0807,-1.081,-1.087,-1.0886,-1.0923,-1.094,-1.0931,-1.1012,-1.0999,-1.0974,-1.0933,-1.1011,-1.1044,-1.1057,-1.0884,-1.0883,-1.0882,-1.0881,0,0,-1.0736,-1.076,-1.0775,-1.0789,-1.0812,-1.0844,-1.0892,-1.0927,-1.095,-1.0974,-1.1015,-1.1068,-1.1046,-1.1066,-1.1059,-1.1095,-1.1173,-1.1066,-1.1066,-1.1087,-1.1265,-1.1285,-1.1301,-1.1161,-1.1163,-1.1165,-1.1264,0,-1.0831,-1.0913,-1.0904,-1.0984,-1.1022,-1.0995,-1.1037,-1.1056,-1.106,-1.1094,-1.1098,-1.1137,-1.1103,-1.1116,-1.1149,-1.1157,-1.1209,-1.1149,-1.1201,-1.1203,-1.1198,-1.1318,-1.1339,-1.1431,-1.1276,-1.1279,-1.128,0,-1.0953,-1.098,-1.1063,-1.108,-1.1095,-1.1133,-1.1165,-1.1197,-1.1218,-1.1219,-1.1241,-1.1227,-1.1277,-1.1232,-1.1301,-1.126,-1.128,-1.1287,-1.129,-1.1297,-1.1248,-1.1329,-1.146,-1.1475,-1.13,-1.1298,-1.1297,0,-1.1039,-1.1096,-1.1153,-1.1166,-1.1187,-1.1214,-1.1225,-1.1243,-1.1265,-1.1293,-1.1307,-1.1341,-1.136,-1.1387,-1.1383,-1.1351,-1.1454,-1.1409,-1.1457,-1.1457,-1.1482,-1.1481,-1.162,-1.1491,-1.1491,-1.1491,-1.149,0,-1.1148,-1.12,-1.1193,-1.1228,-1.1286,-1.1275,-1.1333,-1.134,-1.1356,-1.1393,-1.1372,-1.1408,-1.1399,-1.1435,-1.1432,-1.149,-1.1499,-1.1501,-1.1501,-1.1505,-1.1505,-1.152,-1.1514,-1.1494,-1.1494,-1.1493,-1.1492,0,-1.1255,-1.1252,-1.1313,-1.1327,-1.1331,-1.1374,-1.1386,-1.142,-1.1421,-1.1469,-1.1479,-1.1482,-1.1523,-1.1521,-1.1567,-1.1565,-1.1637,-1.1628,-1.163,-1.1629,-1.1678,-1.1674,-1.1834,-1.1855,-1.171,-1.1712,-1.1713,0,-1.1326,-1.1365,-1.1383,-1.1405,-1.1417,-1.1454,-1.1476,-1.1466,-1.149,-1.1517,-1.1548,-1.1586,-1.1616,-1.1683,-1.169,-1.1725,-1.1718,-1.1771,-1.1723,-1.1726,-1.1721,-1.172,-1.1724,-1.1782,-1.1783,-1.1784,-1.1785,0,-1.1452,-1.1448,-1.1479,-1.1511,-1.1537,-1.1562,-1.1584,-1.1604,-1.1597,-1.1625,-1.1665,-1.1689,-1.1735,-1.1774,-1.1808,-1.1819,-1.1803,-1.18,-1.1813,-1.1819,-1.182,-1.1822,-1.1658,-1.1797,-1.1796,-1.1795,-1.1794,-1.1794,-1.1544,-1.1578,-1.1596,-1.1632,-1.1647,-1.1668,-1.1701,-1.1706,-1.1739,-1.1776,-1.1768,-1.1814,-1.1834,-1.1877,-1.1892,-1.1928,-1.191,-1.1929,-1.1934,-1.1939,-1.1946,-1.1812,-1.1934,-1.1934,-1.1934,-1.1933,-1.1933,0,-1.1671,-1.168,-1.1713,-1.1745,-1.1773,-1.1752,-1.1775,-1.1801,-1.1842,-1.1861,-1.1891,-1.1938,-1.1975,-1.1985,-1.2021,-1.2049,-1.2042,-1.2059,-1.2058,-1.2061,-1.1959,-1.1945,-1.2064,-1.2064,-1.2064,-1.2064,-1.2064,-1.2064,-1.174,-1.1797,-1.1795,-1.1859,-1.1868,-1.1913,-1.1928,-1.1948,-1.1963,-1.2016,-1.2047,-1.2052,-1.2068,-1.2105,-1.2138,-1.214,-1.2156,-1.2176,-1.2175,-1.2081,-1.2068,-1.2056,-1.2042,-1.2179,-1.2179,-1.2274,-1.2275,-1.2275]},{"header":{"parameterUnit":"m.s-1","parameterCategory":1,"la1":30.2991,"la2":30.254,"lo1":-89.0895,"lo2":-89.0444,"dy":0.0017,"dx":0.0017,"nx":28,"ny":28,"refTime":"2025-05-22T03:00:00:Z","depth":0,"parameterNumber":3,"parameterNumberName":"V-component_of_WINDS"},"data":[0,0,0,0,0,0,0,0,0,0,0,0,0,0,0,0,0,0,0,0,0,0,0,0,0,0,0,0,0,0,0,0,0,0,0,0,0,0,0,0,0,0,0,0,0,0,0,0,0,0,0,0,0,0,0,0,0,0,-1.65,-1.6501,0,-1.6541,-1.6541,-1.6542,-1.6553,-1.6553,-1.6553,-1.6553,-1.659,-1.6591,-1.6592,0,0,0,0,0,0,0,0,0,0,0,0,0,-1.6429,-1.643,-1.65,-1.6501,-1.6501,-1.6541,-1.6541,-1.6542,-1.6553,-1.6553,-1.6553,-1.6553,-1.659,-1.6591,-1.6592,0,0,0,0,0,0,0,0,0,0,0,0,0,-1.6464,-1.6431,-1.65,-1.6512,-1.6513,-1.6541,-1.6541,-1.6542,-1.6553,-1.6553,-1.6553,-1.6552,-1.6589,-1.6591,-1.6593,-1.661,0,0,-1.6598,-1.6599,0,0,0,0,0,0,0,0,-1.6462,-1.6466,-1.651,-1.6511,-1.6513,-1.6542,-1.653,-1.6565,-1.6553,-1.6538,-1.6553,-1.6552,-1.6574,-1.6577,-1.6585,-1.6612,-1.6613,-1.6598,-1.6599,-1.66,-1.6601,0,0,0,0,0,0,0,-1.6459,-1.6464,-1.6516,-1.651,-1.6512,-1.6514,-1.6518,-1.6536,-1.6557,-1.6539,-1.654,-1.6545,-1.6575,-1.6583,-1.6586,-1.6614,-1.6598,-1.66,-1.6601,-1.6601,-1.6656,-1.6656,0,0,0,0,0,0,-1.6455,-1.6462,-1.6515,-1.6517,-1.6486,-1.6515,-1.652,-1.6533,-1.6557,-1.656,-1.6545,-1.6546,-1.658,-1.6584,-1.6587,-1.6609,-1.66,-1.6602,-1.6603,-1.6656,-1.6656,-1.6657,0,0,0,0,0,0,-1.6454,-1.646,-1.6513,-1.649,-1.6497,-1.6517,-1.6531,-1.6534,-1.6542,-1.6562,-1.6565,-1.6551,-1.658,-1.6585,-1.6604,-1.661,-1.6602,-1.6604,-1.6655,-1.6656,-1.6656,-1.6653,0,0,0,0,0,0,-1.6452,-1.6459,-1.6467,-1.649,-1.6498,-1.6531,-1.6531,-1.6535,-1.6546,-1.6547,-1.6567,-1.6571,-1.658,-1.6602,-1.6606,-1.6613,-1.6605,-1.6655,-1.6656,-1.6656,-1.6652,-1.6653,-1.6654,0,0,0,0,0,-1.6449,-1.6463,-1.6467,-1.6474,-1.6509,-1.6531,-1.6536,-1.6548,-1.6546,-1.6554,-1.6566,-1.657,-1.6609,-1.6604,-1.6609,-1.6616,-1.6654,-1.6655,-1.6656,-1.6652,-1.6653,-1.6654,0,0,0,0,0,0,-1.6438,-1.6467,-1.6471,-1.6494,-1.651,-1.6533,-1.6543,-1.6548,-1.6564,-1.6564,-1.6577,-1.6582,-1.66,-1.661,-1.6603,-1.6634,-1.6632,-1.6634,-1.6627,-1.6628,-1.6628,-1.6625,-1.6607,0,0,0,0,0,-1.6439,-1.6457,-1.648,-1.6497,-1.6505,-1.6523,-1.6533,-1.6541,-1.6558,-1.6564,-1.6578,-1.6593,-1.6609,-1.6619,-1.6634,-1.6654,-1.6658,-1.6661,-1.6662,-1.6662,-1.6664,-1.6674,-1.6676,-1.6659,-1.6659,-1.6659,0,0,-1.644,-1.6457,-1.6467,-1.6495,-1.6509,-1.6526,-1.6528,-1.6545,-1.6557,-1.6567,-1.6586,-1.6597,-1.6614,-1.6634,-1.6643,-1.6643,-1.6669,-1.6663,-1.6664,-1.6665,-1.6675,-1.6677,-1.6678,-1.666,-1.666,-1.666,0,0,-1.645,-1.6465,-1.6482,-1.6496,-1.6517,-1.6528,-1.6532,-1.6554,-1.6562,-1.6583,-1.659,-1.6603,-1.663,-1.6643,-1.6653,-1.6668,-1.6671,-1.6672,-1.6675,-1.6685,-1.6687,-1.6688,-1.6693,-1.6694,-1.6673,-1.6673,-1.6673,0,-1.6448,-1.6474,-1.6489,-1.6506,-1.6518,-1.6529,-1.6545,-1.6557,-1.6581,-1.6589,-1.6588,-1.6623,-1.6635,-1.6657,-1.6661,-1.6669,-1.6673,-1.667,-1.6686,-1.6687,-1.6688,-1.6693,-1.6695,-1.6673,-1.6673,-1.6673,-1.6673,0,-1.647,-1.6488,-1.6499,-1.6524,-1.6537,-1.6553,-1.6569,-1.6581,-1.6588,-1.6599,-1.6619,-1.6635,-1.6654,-1.666,-1.6666,-1.6683,-1.6682,-1.6683,-1.6681,-1.669,-1.6694,-1.6696,-1.6673,-1.6673,-1.6673,-1.6673,0,0,-1.6474,-1.6508,-1.6511,-1.6523,-1.6547,-1.6561,-1.6577,-1.6598,-1.6607,-1.6623,-1.6637,-1.6659,-1.6661,-1.6672,-1.668,-1.6689,-1.67,-1.6689,-1.669,-1.669,-1.6718,-1.6717,-1.6719,-1.6703,-1.6703,-1.6703,-1.6717,0,-1.6487,-1.6518,-1.6532,-1.6557,-1.6574,-1.6584,-1.6598,-1.6614,-1.6625,-1.664,-1.6651,-1.6667,-1.6668,-1.6675,-1.6684,-1.6696,-1.6705,-1.6696,-1.6714,-1.6715,-1.6709,-1.6721,-1.672,-1.6732,-1.6719,-1.6719,-1.6719,0,-1.6506,-1.6524,-1.6551,-1.6574,-1.6581,-1.6594,-1.6613,-1.6627,-1.6645,-1.6652,-1.6665,-1.6673,-1.6689,-1.6687,-1.6709,-1.6702,-1.6711,-1.6718,-1.6719,-1.672,-1.6717,-1.6723,-1.6736,-1.6737,-1.6722,-1.6722,-1.6722,0,-1.6505,-1.6536,-1.6557,-1.6566,-1.6593,-1.6602,-1.6613,-1.6631,-1.6642,-1.6659,-1.6666,-1.6683,-1.6693,-1.6706,-1.6717,-1.6715,-1.6739,-1.6737,-1.6744,-1.6744,-1.6748,-1.6748,-1.6762,-1.6754,-1.6754,-1.6754,-1.6754,0,-1.6518,-1.6534,-1.6557,-1.6569,-1.6587,-1.6602,-1.6619,-1.6631,-1.6647,-1.666,-1.667,-1.6683,-1.6698,-1.6712,-1.6721,-1.6738,-1.6742,-1.6748,-1.675,-1.6747,-1.6746,-1.6752,-1.6751,-1.6755,-1.6755,-1.6755,-1.6754,0,-1.652,-1.6537,-1.6559,-1.6583,-1.659,-1.6602,-1.6622,-1.6633,-1.6645,-1.6663,-1.6667,-1.6685,-1.6702,-1.6716,-1.6737,-1.6744,-1.6761,-1.6764,-1.6756,-1.6757,-1.6763,-1.6762,-1.6781,-1.6784,-1.6775,-1.6775,-1.6775,0,-1.6527,-1.654,-1.6566,-1.6576,-1.6588,-1.6605,-1.6617,-1.6632,-1.6644,-1.6665,-1.6674,-1.6692,-1.6708,-1.6734,-1.6748,-1.6765,-1.6767,-1.6773,-1.677,-1.6766,-1.6767,-1.6766,-1.6767,-1.6773,-1.6773,-1.6773,-1.6773,0,-1.6537,-1.6544,-1.6562,-1.6583,-1.6597,-1.6613,-1.663,-1.6637,-1.6655,-1.6668,-1.6686,-1.6698,-1.6721,-1.6739,-1.6757,-1.6767,-1.6773,-1.6774,-1.6777,-1.6773,-1.6768,-1.6771,-1.6756,-1.6774,-1.6774,-1.6774,-1.6774,-1.6774,-1.6541,-1.6553,-1.6573,-1.6593,-1.6607,-1.6622,-1.6634,-1.6648,-1.6664,-1.6685,-1.6693,-1.6712,-1.6729,-1.6754,-1.6764,-1.6779,-1.6779,-1.6782,-1.6783,-1.6784,-1.6783,-1.6766,-1.6782,-1.6782,-1.6782,-1.6782,-1.6782,0,-1.6551,-1.6565,-1.6583,-1.6606,-1.6621,-1.6627,-1.6645,-1.6657,-1.6674,-1.669,-1.6705,-1.6726,-1.6743,-1.6759,-1.6777,-1.6785,-1.6788,-1.6789,-1.6788,-1.679,-1.6782,-1.6778,-1.6786,-1.6786,-1.6786,-1.6786,-1.6786,-1.6786,-1.6558,-1.6579,-1.6589,-1.6616,-1.6629,-1.6649,-1.6659,-1.6673,-1.6686,-1.6709,-1.6724,-1.6735,-1.6751,-1.6769,-1.6785,-1.6789,-1.6795,-1.6795,-1.68,-1.6792,-1.6791,-1.679,-1.6787,-1.6796,-1.6796,-1.6807,-1.6807,-1.6807]}]]